Regional Weather Roundup
Issued by NWS

Home | Current Version | Previous Version | Text Only | Print | Product List | Glossary On
Versions: 1 2 3 4 5 6 7 8 9 10 11 12 13 14 15 16 17 18 19 20 21 22 23 24 25 26 27 28 29 30 31 32 33 34 35 36 37 38 39 40 41 42 43 44 45 46 47 48 49 50
000
ASCA42 TJSJ 200411
RWRPR
PUERTO RICO/U.S. VIRGIN ISLANDS HOURLY WEATHER ROUNDUP
NATIONAL WEATHER SERVICE SAN JUAN PR
1200 AM AST SAT SEP 20 2014

PRZ001-004-200500-
PUERTO RICO

CITY           SKY/WX    TMP DP  RH WIND       PRES   REMARKS
SAN JUAN LMM   PTCLDY    82  75  78 E6        29.97F
PONCE          PTCLDY    79  73  83 CALM      29.94F
AGUADILLA      CLEAR     77  72  83 CALM      29.98F
CEIBA          PTCLDY    81  73  78 E3        29.99F
$$

PRZ006-007-200500-
U.S. VIRGIN ISLANDS

CITY           SKY/WX    TMP DP  RH WIND       PRES   REMARKS
CHRISTIANSTED  PTCLDY    81  73  78 NE3       29.97F
$$

HOURLY WEATHER ROUNDUP FOR THE NEWS MEDIA

CITY           SKY/WX    TMP DP  RH WIND       PRES   REMARKS
MIAMI          MOCLDY    77  75  93 CALM      29.98S
ORLANDO        LGT RAIN  71  69  93 E7        30.00S
NEW YORK       MOCLDY    62  49  62 E9        30.36F
NEWARK         MOCLDY    62  51  67 SE6       30.35F
CHICAGO        PTCLDY    66  47  50 S14       29.95S
HARTFORD       CLEAR     37  36  96 CALM      30.41F
BOSTON         CLEAR     50  38  63 S8        30.42F
DALLAS         MOCLDY    81  69  67 E9        29.95R
PHILADELPHIA   PTCLDY    59  54  83 E7        30.34F



USA.gov is the U.S. government's official web portal to all federal, state and local government web resources and services.